KN4PLO Weather Reports


time (UTC)temp
F
wind
direction
speed
knots
gust
knots
rain 1hr
in
rain 24hr
in
rain mn
in
humidity
%
barometer
mb
20260504141253 61 255 0.9 0.0 0.00 0.00 0.00 100
20260504140753 60 226 3.5 0.0 0.00 0.00 0.00 100
20260504140725 60 187 3.5 0.0 0.00 0.00 0.00 100
20260504140253 60 200 6.1 0.0 0.00 0.00 0.00 100
20260504130753 57 303 0.9 0.0 0.00 0.00 0.00 100
20260504130726 57 318 0.9 0.0 0.00 0.00 0.00 100
20260504130253 56 230 0.9 0.0 0.00 0.00 0.00 100
20260504120253 49 130 0.9 0.0 0.00 0.00 0.00 100
20260504100254 45 232 0.9 0.0 0.00 0.00 0.00 100
20260504081753 47 227 0.9 0.0 0.00 0.00 0.00 100
20260504081726 47 230 1.7 0.0 0.00 0.00 0.00 100
20260504081253 47 259 0.9 0.0 0.00 0.00 0.00 100
20260504080725 47 130 1.7 0.0 0.00 0.00 0.00 100
20260504080253 47 106 0.9 0.0 0.00 0.00 0.00 100
20260504050724 50 226 0.9 0.0 0.00 0.00 0.00 100
20260504050253 50 236 0.9 0.0 0.00 0.00 0.00 100
20260504045753 51 234 0.9 0.0 0.00 0.00 0.00 100
20260504045725 51 238 0.9 0.0 0.00 0.00 0.00 100
20260504045253 51 225 1.7 0.0 0.00 0.00 0.00 100
20260504044753 51 206 1.7 0.0 0.00 0.00 0.00 100
20260504044724 51 203 0.9 0.0 0.00 0.00 0.00 100
20260504044253 51 213 0.9 0.0 0.00 0.00 0.00 100
20260504043753 51 218 1.7 0.0 0.00 0.00 0.00 100
20260504043724 51 203 1.7 0.0 0.00 0.00 0.00 100
20260504043253 51 223 1.7 0.0 0.00 0.00 0.00 100
20260504042753 52 236 0.9 0.0 0.00 0.00 0.00 100
20260504042726 52 237 0.9 0.0 0.00 0.00 0.00 100
20260504042253 52 246 1.7 0.0 0.00 0.00 0.00 100
20260504041753 52 221 0.9 0.0 0.00 0.00 0.00 100
20260504041253 52 240 1.7 0.0 0.00 0.00 0.00 100
20260504040753 53 221 0.9 0.0 0.00 0.00 0.00 100
20260504040724 53 219 0.9 0.0 0.00 0.00 0.00 100
20260504040253 53 242 0.9 0.0 0.00 0.00 0.00 100
20260504035724 53 263 1.7 0.0 0.00 0.00 0.00 100
20260504035253 53 260 0.9 0.0 0.00 0.00 0.00 100
20260504034753 54 232 0.9 0.0 0.00 0.00 0.00 100
20260504034726 54 238 0.9 0.0 0.00 0.00 0.00 100
20260504034253 54 244 0.9 0.0 0.00 0.00 0.00 100
20260504033753 54 241 0.9 0.0 0.00 0.00 0.00 100
20260504033724 54 245 0.9 0.0 0.00 0.00 0.00 100
20260504033253 54 227 0.9 0.0 0.00 0.00 0.00 100
20260504032753 54 217 0.9 0.0 0.00 0.00 0.00 100
20260504032253 54 236 0.9 0.0 0.00 0.00 0.00 100
20260504031753 54 223 0.9 0.0 0.00 0.00 0.00 100
20260504031724 54 219 0.9 0.0 0.00 0.00 0.00 100
20260504031253 54 238 0.9 0.0 0.00 0.00 0.00 100
20260504030753 55 227 0.9 0.0 0.00 0.00 0.00 100
20260504030724 54 222 0.9 0.0 0.00 0.00 0.00 100
20260504030253 55 234 0.9 0.0 0.00 0.00 0.00 100
20260504025754 55 264 0.9 0.0 0.00 0.00 0.00 100
20260504025725 55 267 0.9 0.0 0.00 0.00 0.00 100
20260504025254 55 237 0.9 0.0 0.00 0.00 0.00 100
20260504024734 55 267 0.9 0.0 0.00 0.00 0.00 100
20260504024254 55 255 1.7 0.0 0.00 0.00 0.00 100
20260504023754 56 248 1.7 0.0 0.00 0.00 0.00 100
20260504023727 56 242 1.7 0.0 0.00 0.00 0.00 100
20260504023254 56 226 0.9 0.0 0.00 0.00 0.00 100
20260504022725 56 187 0.9 0.0 0.00 0.00 0.00 100
20260504022254 57 188 0.9 0.0 0.00 0.00 0.00 100
20260504021725 57 199 0.9 0.0 0.00 0.00 0.00 100
20260504021254 57 226 1.7 0.0 0.00 0.00 0.00 100
20260504020754 58 219 0.9 0.0 0.00 0.00 0.00 100
20260504020726 58 195 0.9 0.0 0.00 0.00 0.00 100
20260504015727 59 291 0.9 0.0 0.00 0.00 0.00 100
20260504015254 59 291 0.9 0.0 0.00 0.00 0.00 100
20260504014726 59 284 0.9 0.0 0.00 0.00 0.00 100
20260504014254 59 284 2.6 0.0 0.00 0.00 0.00 100
20260504013753 60 330 0.9 0.0 0.00 0.00 0.00 100
20260504013725 60 340 1.7 0.0 0.00 0.00 0.00 100
20260504013253 60 321 1.7 0.0 0.00 0.00 0.00 100
20260504012754 60 303 0.9 0.0 0.00 0.00 0.00 100
20260504012726 60 291 0.9 0.0 0.00 0.00 0.00 100
20260504012253 60 286 1.7 0.0 0.00 0.00 0.00 100
20260504011753 60 294 1.7 0.0 0.00 0.00 0.00 100
20260504011726 61 286 0.9 0.0 0.00 0.00 0.00 100
20260504011253 61 252 0.9 0.0 0.00 0.00 0.00 100
20260504010753 61 283 1.7 0.0 0.00 0.00 0.00 100
20260504010725 61 250 0.9 0.0 0.00 0.00 0.00 100
20260504010253 61 310 1.7 0.0 0.00 0.00 0.00 100
20260504005753 61 303 2.6 0.0 0.00 0.00 0.00 100
20260504005726 62 300 0.9 0.0 0.00 0.00 0.00 100
20260504005253 62 303 1.7 0.0 0.00 0.00 0.00 100
20260504004753 62 269 0.9 0.0 0.00 0.00 0.00 100
20260504004725 62 317 0.9 0.0 0.00 0.00 0.00 100
20260504004253 62 309 0.9 0.0 0.00 0.00 0.00 100
20260504003753 62 294 2.6 0.0 0.00 0.00 0.00 100
20260504003726 62 292 2.6 0.0 0.00 0.00 0.00 100
20260504003254 63 283 1.7 0.0 0.00 0.00 0.00 100
20260504002753 63 283 4.3 0.0 0.00 0.00 0.00 100
20260504002726 63 294 1.7 0.0 0.00 0.00 0.00 100
20260504002253 64 283 2.6 0.0 0.00 0.00 0.00 100
20260504001753 64 267 1.7 0.0 0.00 0.00 0.00 100
20260504001726 64 300 1.7 0.0 0.00 0.00 0.00 100
20260504001253 65 315 1.7 0.0 0.00 0.00 0.00 100
20260504000753 65 286 2.6 0.0 0.00 0.00 0.00 100
20260504000725 65 280 3.5 0.0 0.00 0.00 0.00 100
20260504000253 65 19 0.9 0.0 0.00 0.00 0.00 100
20260503235753 65 287 3.5 0.0 0.00 0.00 0.00 100
20260503235726 65 315 5.2 0.0 0.00 0.00 0.00 100
20260503235253 65 278 7.0 0.0 0.00 0.00 0.00 100
20260503234753 66 351 7.0 0.0 0.00 0.00 0.00 100
20260503234725 66 313 6.1 0.0 0.00 0.00 0.00 100
20260503234253 66 303 5.2 0.0 0.00 0.00 0.00 100
20260503233753 66 278 4.3 0.0 0.00 0.00 0.00 100
20260503233726 66 287 4.3 0.0 0.00 0.00 0.00 100
20260503233253 67 314 3.5 0.0 0.00 0.00 0.00 100
20260503232753 67 276 7.0 0.0 0.00 0.00 0.00 100
20260503232726 67 287 8.7 0.0 0.00 0.00 0.00 100
20260503232253 67 279 7.0 0.0 0.00 0.00 0.00 100
20260503231753 67 311 0.9 0.0 0.00 0.00 0.00 100
20260503231726 67 326 0.9 0.0 0.00 0.00 0.00 100
20260503231253 67 307 6.1 0.0 0.00 0.00 0.00 100
20260503230753 68 295 4.3 0.0 0.00 0.00 0.00 100
20260503230726 68 268 8.7 0.0 0.00 0.00 0.00 100
20260503230253 68 330 2.6 0.0 0.00 0.00 0.00 100
20260503225753 68 310 3.5 0.0 0.00 0.00 0.00 100
20260503225726 68 348 3.5 0.0 0.00 0.00 0.00 100
20260503225253 68 305 3.5 0.0 0.00 0.00 0.00 100
20260503224753 68 248 5.2 0.0 0.00 0.00 0.00 100
20260503224727 68 236 4.3 0.0 0.00 0.00 0.00 100
20260503224253 68 286 7.0 0.0 0.00 0.00 0.00 100
20260503223753 68 315 7.8 0.0 0.00 0.00 0.00 100
20260503223726 68 333 7.8 0.0 0.00 0.00 0.00 100
20260503223253 68 349 7.0 0.0 0.00 0.00 0.00 100
20260503222753 68 299 9.6 0.0 0.00 0.00 0.00 100
20260503222726 68 294 7.8 0.0 0.00 0.00 0.00 100
20260503222253 68 303 4.3 0.0 0.00 0.00 0.00 100
20260503221753 69 336 4.3 0.0 0.00 0.00 0.00 100
20260503221726 69 292 4.3 0.0 0.00 0.00 0.00 100
20260503221253 69 225 2.6 0.0 0.00 0.00 0.00 100
20260503220753 69 272 6.1 0.0 0.00 0.00 0.00 100
20260503220725 69 263 7.0 0.0 0.00 0.00 0.00 100
20260503220253 69 282 7.0 0.0 0.00 0.00 0.00 100
20260503215753 69 234 2.6 0.0 0.00 0.00 0.00 100
20260503215729 69 294 1.7 0.0 0.00 0.00 0.00 100
20260503215253 68 279 4.3 0.0 0.00 0.00 0.00 100